Change the Weather History Date:

Saturday, April 5, 2014

  Actual Average Record
Temperature  
Mean Temperature 44 °F 42 °F  
Max Temperature 52 °F 55 °F 77 °F (1960)
Min Temperature 35 °F 30 °F 4 °F (1936)
Degree Days  
Heating Degree Days 21 23  
Month to date heating degree days 120 117  
Since 1 July heating degree days 6564 6569  
Cooling Degree Days 0 0  
Month to date cooling degree days 0 0  
Year to date cooling degree days 0 0  
Moisture  
Dew Point 24 °F    
Average Humidity 49    
Maximum Humidity 70    
Minimum Humidity 27    
Precipitation  
Precipitation 0.00 in 0.03 in 0.75 in (2006)
Month to date precipitation T 0.13  
Year to date precipitation 3.33 1.38  
Snow  
Snow 0.00 in 0.20 in 6.50 in (1916)
Month to date snowfall 0.0 0.8  
Since 1 July snowfall 41.8 34.3  
Snow Depth 0.00 in    
Sea Level Pressure  
Sea Level Pressure 29.96 in    
Wind  
Wind Speed 10 mph (West)    
Max Wind Speed 25 mph    
Max Gust Speed 39 mph    
Visibility 10 miles    
Events      
T = Trace of Precipitation, MM = Missing Value Source: NWS Daily Summary

Daily Weather History Graph

Daily Weather History Graph

Search for Another Location

Airport or City:

Trip Planner

Search our weather history database for the weather conditions in past years. The results will help you decide how hot, cold, wet, or windy it might be!

Date:

Astronomy

Apr. 05, 2014 Rise Set
Actual Time 6:59 AM MDT 8:02 PM MDT
Civil Twilight 6:28 AM MDT 8:33 PM MDT
Nautical Twilight 5:51 AM MDT 9:10 PM MDT
Astronomical Twilight 5:12 AM MDT 9:49 PM MDT
Moon 10:57 AM MDT (4/5) 1:27 AM MDT (4/5)
Length of Visible Light 14h 04m
Length of Day
13h 03m
Waxing Crescent, 35% of the Moon is Illuminated
Apr 5
Waxing Crescent
Apr 7
First Quarter
Apr 15
Full
Apr 22
Last Quarter
Apr 29
New

Hourly Weather History & Observations

Time (MDT) Temp. Windchill Dew Point Humidity Pressure Visibility Wind Dir Wind Speed Gust Speed Precip Events Conditions
12:53 AM 39.9 °F - 28.0 °F 63% 29.91 in 10.0 mi Calm Calm - N/A   Clear
1:53 AM 36.0 °F - 27.0 °F 70% 29.91 in 10.0 mi Calm Calm - N/A   Clear
2:53 AM 37.0 °F - 28.0 °F 70% 29.91 in 10.0 mi Calm Calm - N/A   Scattered Clouds
3:53 AM 39.0 °F 34.0 °F 27.0 °F 62% 29.92 in 10.0 mi West 6.9 mph - N/A   Scattered Clouds
4:53 AM 36.0 °F 31.1 °F 27.0 °F 70% 29.93 in 10.0 mi West 5.8 mph - N/A   Partly Cloudy
5:53 AM 37.9 °F 32.1 °F 27.0 °F 65% 29.93 in 10.0 mi West 8.1 mph - N/A   Scattered Clouds
6:53 AM 36.0 °F - 26.1 °F 67% 29.96 in 10.0 mi Calm Calm - N/A   Mostly Cloudy
7:53 AM 37.9 °F - 27.0 °F 65% 29.97 in 10.0 mi Calm Calm - N/A   Scattered Clouds
8:53 AM 43.0 °F 41.3 °F 26.1 °F 51% 29.97 in 10.0 mi Variable 3.5 mph - N/A   Partly Cloudy
9:53 AM 45.0 °F 38.9 °F 23.0 °F 42% 29.98 in 10.0 mi WNW 12.7 mph 18.4 mph N/A   Mostly Cloudy
10:53 AM 46.0 °F 39.0 °F 23.0 °F 40% 29.97 in 10.0 mi WNW 17.3 mph - N/A   Overcast
11:53 AM 46.0 °F 38.5 °F 24.1 °F 42% 29.99 in 10.0 mi West 19.6 mph 27.6 mph N/A   Overcast
12:53 PM 48.9 °F - 25.0 °F 39% 29.96 in 10.0 mi West 21.9 mph 26.5 mph N/A   Scattered Clouds
1:53 PM 48.9 °F - 23.0 °F 36% 29.96 in 10.0 mi WSW 18.4 mph 28.8 mph N/A   Clear
2:53 PM 50.0 °F - 23.0 °F 35% 29.95 in 10.0 mi West 19.6 mph 27.6 mph N/A   Scattered Clouds
3:53 PM 51.1 °F - 21.9 °F 32% 29.94 in 10.0 mi West 15.0 mph 28.8 mph N/A   Mostly Cloudy
4:53 PM 50.0 °F - 18.0 °F 28% 29.94 in 10.0 mi WNW 19.6 mph 28.8 mph N/A   Mostly Cloudy
5:53 PM 50.0 °F - 19.0 °F 29% 29.95 in 10.0 mi West 18.4 mph 24.2 mph N/A   Partly Cloudy
6:53 PM 48.9 °F - 19.9 °F 32% 29.96 in 10.0 mi West 15.0 mph - N/A   Mostly Cloudy
7:53 PM 46.0 °F 41.0 °F 19.9 °F 35% 29.97 in 10.0 mi West 10.4 mph - N/A   Clear
8:53 PM 43.0 °F 37.7 °F 21.9 °F 43% 29.98 in 10.0 mi West 9.2 mph - N/A   Clear
9:53 PM 44.1 °F 38.1 °F 23.0 °F 43% 29.98 in 10.0 mi WSW 11.5 mph - N/A   Clear
10:53 PM 41.0 °F 37.1 °F 24.1 °F 51% 29.99 in 10.0 mi West 5.8 mph - N/A   Scattered Clouds
11:53 PM 42.1 °F 40.2 °F 24.1 °F 49% 29.99 in 10.0 mi WNW 3.5 mph - N/A   Scattered Clouds